QPF
0.02 0.02 0.01 0.01 0.03 0.03 0.04 0.04 0.03 0.02 0.02 0.03 0.02 0.02 0.01 0.02 0.02 0.02 0.03 0.04 0.04 0.04 0.03 0.02 0.02 0.02 0.01 0.01 0.01 0.02 0.03 0.04 0.04 0.04 0.04 0.03 0.03 0.03 0.04 0.06 0.09 0.11 0.11
0.03 0.04 0.02 0.01 0.01 0.02 0.02 0.03 0.03 0.03 0.03 0.02 0.02 0.02 0.02 0.02 0.02 0.02 0.03 0.04 0.03 0.03 0.04 0.04 0.04 0.03 0.02 0.01 0.01 0.02 0.04 0.05 0.04 0.03 0.03 0.03 0.02 0.03 0.03 0.04 0.06 0.09 0.11
0.03 0.06 0.03 0.02 0.01 0.01 0.01 0.02 0.02 0.02 0.02 0.02 0.02 0.02 0.02 0.02 0.02 0.03 0.02 0.02 0.02 0.02 0.01 0.01 0.02 0.03 0.03 0.03 0.03 0.04 0.04 0.04 0.04 0.03 0.02 0.02 0.01 0.02 0.02 0.03 0.03 0.06 0.10
0.02 0.05 0.04 0.04 0.02 0.02 0.02 0.04 0.05 0.03 0.02 0.02 0.02 0.02 0.02 0.02 0.01 0.02 0.02 0.02 0.02 0.01 0.01 0.01 0.02 0.02 0.02 0.02 0.04 0.05 0.05 0.05 0.04 0.04 0.03 0.03 0.02 0.02 0.02 0.03 0.03 0.04 0.05
0.02 0.04 0.05 0.06 0.04 0.04 0.05 0.08 0.06 0.03 0.02 0.02 0.02 0.02 0.01 0.02 0.01 0.02 0.02 0.02 0.01 0.02 0.03 0.04 0.04 0.03 0.02 0.02 0.04 0.04 0.03 0.03 0.03 0.04 0.04 0.04 0.04 0.03 0.03 0.05 0.04 0.04 0.04
0.01 0.03 0.05 0.08 0.06 0.05 0.05 0.07 0.04 0.01 0.01 0.01 0.01 0.02 0.01 0.02 0.02 0.02 0.03 0.02 0.02 0.03 0.04 0.05 0.06 0.04 0.03 0.02 0.04 0.03 0.02 0.02 0.03 0.04 0.04 0.03 0.03 0.03 0.03 0.03 0.02 0.03 0.03
0.02 0.02 0.03 0.07 0.06 0.04 0.03 0.03 0.02 0.01 0.00 0.00 0.01 0.01 0.01 0.01 0.01 0.02 0.02 0.02 0.02 0.03 0.02 0.03 0.03 0.02 0.02 0.02 0.03 0.02 0.01 0.02 0.04 0.03 0.03 0.04 0.04 0.05 0.04 0.04 0.03 0.03 0.03
0.01 0.02 0.03 0.05 0.05 0.04 0.03 0.02 0.01 0.00 0.00 0.00 0.01 0.01 0.01 0.01 0.01 0.02 0.03 0.02 0.02 0.02 0.01 0.01 0.01 0.01 0.01 0.00 0.01 0.01 0.02 0.02 0.04 0.05 0.04 0.04 0.05 0.06 0.05 0.05 0.05 0.04 0.04
0.02 0.03 0.03 0.02 0.03 0.02 0.02 0.01 0.01 0.01 0.00 0.00 0.00 0.01 0.01 0.02 0.02 0.02 0.01 0.01 0.01 0.01 0.01 0.01 0.01 0.01 0.01 0.01 0.01 0.01 0.02 0.02 0.02 0.03 0.04 0.05 0.05 0.06 0.08 0.08 0.07 0.06 0.05
0.02 0.02 0.03 0.04 0.05 0.04 0.02 0.01 0.01 0.02 0.02 0.01 0.00 0.00 0.01 0.01 0.01 0.01 0.00 0.01 0.01 0.01 0.01 0.01 0.01 0.01 0.01 0.01 0.02 0.02 0.03 0.02 0.02 0.02 0.02 0.03 0.04 0.05 0.07 0.08 0.08 0.07 0.07
0.01 0.02 0.05 0.12 0.13 0.06 0.03 0.02 0.01 0.02 0.02 0.01 0.00 0.00 0.00 0.00 0.00 0.01 0.01 0.01 0.01 0.01 0.01 0.01 0.01 0.01 0.01 0.01 0.02 0.02 0.02 0.02 0.03 0.03 0.03 0.04 0.04 0.03 0.05 0.06 0.06 0.07 0.07
0.01 0.03 0.05 0.13 0.13 0.06 0.03 0.02 0.01 0.01 0.01 0.01 0.00 0.00 0.00 0.00 0.00 0.01 0.01 0.01 0.01 0.01 0.01 0.02 0.02 0.01 0.01 0.01 0.01 0.01 0.01 0.01 0.01 0.02 0.02 0.02 0.02 0.03 0.04 0.04 0.05 0.06 0.06
0.02 0.03 0.03 0.04 0.03 0.02 0.02 0.01 0.01 0.00 0.00 0.00 0.00 0.00 0.00 0.00 0.00 0.00 0.00 0.00 0.00 0.01 0.01 0.01 0.02 0.01 0.01 0.01 0.01 0.00 0.01 0.01 0.01 0.01 0.01 0.01 0.01 0.02 0.04 0.03 0.03 0.05 0.06
0.02 0.02 0.02 0.02 0.01 0.02 0.01 0.01 0.00 0.00 0.00 0.00 0.00 0.00 0.00 0.00 0.00 0.00 0.00 0.00 0.01 0.01 0.02 0.01 0.01 0.01 0.01 0.00 0.00 0.00 0.00 0.00 0.01 0.01 0.01 0.01 0.01 0.01 0.02 0.03 0.02 0.02 0.04
0.01 0.01 0.02 0.02 0.02 0.02 0.01 0.01 0.00 0.00 0.00 0.00 0.00 0.00 0.00 0.00 0.01 0.01 0.00 0.01 0.01 0.02 0.02 0.02 0.01 0.01 0.01 0.00 0.00 0.00 0.00 0.01 0.01 0.01 0.01 0.01 0.01 0.01 0.01 0.02 0.02 0.02 0.02
0.00 0.01 0.01 0.01 0.02 0.01 0.01 0.01 0.01 0.01 0.00 0.00 0.00 0.00 0.01 0.01 0.01 0.01 0.01 0.01 0.01 0.02 0.02 0.02 0.02 0.01 0.00 0.00 0.00 0.00 0.00 0.01 0.01 0.00 0.01 0.01 0.01 0.01 0.01 0.01 0.01 0.02 0.02
0.01 0.01 0.01 0.01 0.02 0.01 0.00 0.00 0.00 0.01 0.01 0.01 0.01 0.02 0.02 0.02 0.01 0.01 0.01 0.01 0.00 0.01 0.01 0.01 0.01 0.00 0.00 0.00 0.00 0.00 0.00 0.00 0.00 0.01 0.02 0.03 0.03 0.03 0.02 0.02 0.02 0.02 0.02
0.02 0.01 0.01 0.01 0.01 0.01 0.01 0.00 0.00 0.01 0.02 0.04 0.05 0.05 0.03 0.02 0.02 0.02 0.03 0.02 0.01 0.01 0.01 0.01 0.01 0.00 0.01 0.01 0.01 0.01 0.01 0.00 0.00 0.01 0.02 0.02 0.03 0.04 0.04 0.04 0.04 0.04 0.03
0.02 0.03 0.02 0.01 0.01 0.01 0.01 0.01 0.01 0.02 0.04 0.05 0.04 0.03 0.03 0.04 0.04 0.05 0.05 0.05 0.04 0.04 0.04 0.03 0.02 0.02 0.02 0.02 0.01 0.01 0.01 0.01 0.01 0.01 0.01 0.01 0.01 0.02 0.04 0.05 0.05 0.03 0.02
0.01 0.03 0.03 0.03 0.04 0.02 0.02 0.02 0.03 0.04 0.04 0.03 0.02 0.03 0.04 0.06 0.06 0.05 0.05 0.05 0.05 0.05 0.05 0.05 0.03 0.02 0.02 0.02 0.02 0.03 0.02 0.01 0.01 0.01 0.01 0.01 0.01 0.02 0.02 0.03 0.04 0.04 0.03
0.02 0.02 0.03 0.04 0.04 0.03 0.03 0.04 0.04 0.03 0.03 0.03 0.03 0.04 0.05 0.06 0.06 0.06 0.05 0.04 0.04 0.03 0.03 0.03 0.03 0.03 0.03 0.03 0.03 0.04 0.04 0.03 0.03 0.02 0.02 0.02 0.02 0.02 0.02 0.01 0.02 0.03 0.04
0.03 0.03 0.02 0.02 0.02 0.03 0.03 0.03 0.03 0.03 0.03 0.03 0.04 0.05 0.06 0.06 0.07 0.07 0.06 0.05 0.04 0.04 0.03 0.02 0.01 0.02 0.03 0.03 0.02 0.03 0.04 0.05 0.06 0.05 0.03 0.03 0.02 0.01 0.01 0.01 0.01 0.01 0.01
0.03 0.03 0.02 0.03 0.03 0.03 0.04 0.04 0.04 0.04 0.03 0.02 0.03 0.03 0.04 0.06 0.09 0.08 0.06 0.05 0.05 0.04 0.03 0.02 0.01 0.01 0.03 0.05 0.06 0.06 0.06 0.07 0.05 0.04 0.04 0.03 0.03 0.02 0.01 0.01 0.01 0.01 0.01
0.04 0.03 0.02 0.02 0.03 0.03 0.03 0.03 0.04 0.05 0.05 0.04 0.04 0.05 0.05 0.04 0.07 0.08 0.05 0.04 0.04 0.04 0.04 0.03 0.03 0.03 0.04 0.05 0.06 0.05 0.06 0.06 0.06 0.04 0.04 0.03 0.02 0.02 0.01 0.01 0.01 0.02 0.02
0.02 0.02 0.01 0.01 0.02 0.03 0.03 0.04 0.04 0.05 0.05 0.05 0.04 0.04 0.03 0.03 0.03 0.04 0.04 0.03 0.03 0.03 0.04 0.04 0.04 0.03 0.03 0.04 0.06 0.06 0.06 0.07 0.06 0.05 0.04 0.03 0.02 0.02 0.01 0.01 0.01 0.01 0.01
0.02 0.02 0.01 0.01 0.01 0.01 0.02 0.03 0.05 0.06 0.05 0.04 0.04 0.03 0.02 0.02 0.03 0.03 0.04 0.04 0.03 0.03 0.03 0.03 0.03 0.02 0.02 0.03 0.05 0.05 0.05 0.06 0.06 0.04 0.03 0.03 0.02 0.02 0.02 0.01 0.01 0.01 0.01
MSLP
1005.31 1005.46 1005.38 1005.04 1004.47 1003.73 1002.93 1002.18 1001.58 1001.21 1001.10 1001.25 1001.64 1002.20 1002.88 1003.62 1004.39 1005.16 1005.94 1006.73 1007.54 1008.39 1009.27 1010.18 1011.11 1012.05 1013.00 1013.95 1014.92 1015.91 1016.91 1017.92 1018.89 1019.80 1020.59 1021.21 1021.64 1021.86 1021.87 1021.72 1021.46 1021.15 1020.85
1005.43 1005.69 1005.71 1005.46 1004.98 1004.34 1003.63 1002.98 1002.48 1002.20 1002.17 1002.38 1002.79 1003.33 1003.95 1004.59 1005.24 1005.87 1006.52 1007.20 1007.94 1008.74 1009.60 1010.51 1011.45 1012.39 1013.32 1014.24 1015.16 1016.09 1017.03 1017.98 1018.93 1019.83 1020.64 1021.30 1021.79 1022.06 1022.12 1022.00 1021.75 1021.44 1021.12
1005.37 1005.75 1005.90 1005.79 1005.45 1004.93 1004.35 1003.82 1003.42 1003.24 1003.28 1003.54 1003.96 1004.47 1005.02 1005.57 1006.10 1006.62 1007.15 1007.72 1008.38 1009.12 1009.95 1010.84 1011.76 1012.68 1013.58 1014.45 1015.31 1016.16 1017.04 1017.93 1018.84 1019.73 1020.55 1021.26 1021.79 1022.12 1022.25 1022.18 1021.98 1021.69 1021.39
1005.12 1005.62 1005.92 1005.97 1005.78 1005.43 1004.99 1004.58 1004.29 1004.19 1004.30 1004.59 1005.00 1005.49 1005.99 1006.47 1006.91 1007.33 1007.77 1008.27 1008.86 1009.55 1010.34 1011.20 1012.10 1012.98 1013.84 1014.66 1015.46 1016.24 1017.05 1017.88 1018.74 1019.60 1020.42 1021.14 1021.71 1022.10 1022.28 1022.28 1022.14 1021.91 1021.65
1004.71 1005.33 1005.77 1005.99 1005.97 1005.77 1005.48 1005.20 1005.01 1004.99 1005.14 1005.45 1005.87 1006.34 1006.80 1007.23 1007.62 1007.99 1008.37 1008.82 1009.37 1010.03 1010.79 1011.62 1012.49 1013.35 1014.17 1014.95 1015.68 1016.41 1017.14 1017.91 1018.70 1019.52 1020.30 1021.01 1021.60 1022.02 1022.25 1022.31 1022.24 1022.08 1021.89
1004.21 1004.94 1005.52 1005.89 1006.03 1005.99 1005.83 1005.66 1005.56 1005.59 1005.78 1006.11 1006.54 1007.00 1007.46 1007.87 1008.24 1008.59 1008.96 1009.39 1009.91 1010.55 1011.29 1012.11 1012.95 1013.79 1014.58 1015.32 1016.02 1016.68 1017.35 1018.05 1018.77 1019.52 1020.24 1020.91 1021.48 1021.90 1022.16 1022.28 1022.27 1022.19 1022.08
1003.72 1004.53 1005.23 1005.73 1006.02 1006.11 1006.07 1005.99 1005.97 1006.05 1006.27 1006.62 1007.05 1007.52 1007.99 1008.41 1008.79 1009.15 1009.53 1009.96 1010.49 1011.11 1011.84 1012.64 1013.47 1014.28 1015.05 1015.77 1016.43 1017.05 1017.67 1018.29 1018.93 1019.59 1020.23 1020.83 1021.35 1021.75 1022.02 1022.17 1022.22 1022.22 1022.20
1003.31 1004.19 1004.98 1005.59 1005.99 1006.19 1006.25 1006.26 1006.29 1006.42 1006.66 1007.02 1007.47 1007.96 1008.45 1008.90 1009.31 1009.70 1010.10 1010.54 1011.07 1011.69 1012.39 1013.17 1013.97 1014.77 1015.52 1016.22 1016.86 1017.45 1018.01 1018.57 1019.13 1019.69 1020.24 1020.75 1021.19 1021.55 1021.81 1021.98 1022.09 1022.16 1022.23
1003.02 1003.95 1004.81 1005.51 1006.00 1006.29 1006.43 1006.51 1006.59 1006.75 1007.01 1007.39 1007.86 1008.37 1008.88 1009.37 1009.81 1010.23 1010.65 1011.11 1011.62 1012.22 1012.90 1013.64 1014.42 1015.19 1015.92 1016.60 1017.22 1017.79 1018.31 1018.81 1019.29 1019.77 1020.22 1020.63 1021.00 1021.30 1021.53 1021.72 1021.87 1022.00 1022.15
1002.85 1003.82 1004.74 1005.50 1006.06 1006.42 1006.63 1006.76 1006.89 1007.08 1007.37 1007.76 1008.24 1008.76 1009.30 1009.81 1010.29 1010.73 1011.17 1011.62 1012.12 1012.69 1013.32 1014.02 1014.75 1015.48 1016.18 1016.84 1017.45 1017.99 1018.49 1018.94 1019.36 1019.76 1020.12 1020.45 1020.74 1020.99 1021.20 1021.39 1021.57 1021.77 1021.99
1002.77 1003.78 1004.74 1005.55 1006.16 1006.58 1006.85 1007.03 1007.19 1007.41 1007.72 1008.12 1008.61 1009.15 1009.70 1010.23 1010.72 1011.18 1011.61 1012.05 1012.52 1013.04 1013.62 1014.26 1014.94 1015.62 1016.29 1016.92 1017.51 1018.03 1018.50 1018.92 1019.30 1019.64 1019.93 1020.20 1020.43 1020.63 1020.82 1021.02 1021.23 1021.47 1021.75
1002.72 1003.76 1004.74 1005.59 1006.24 1006.71 1007.03 1007.26 1007.47 1007.72 1008.05 1008.46 1008.96 1009.50 1010.05 1010.58 1011.08 1011.53 1011.96 1012.38 1012.81 1013.29 1013.82 1014.39 1015.01 1015.64 1016.27 1016.87 1017.42 1017.93 1018.38 1018.78 1019.12 1019.41 1019.67 1019.89 1020.08 1020.26 1020.44 1020.64 1020.87 1021.15 1021.48
1002.64 1003.69 1004.69 1005.55 1006.25 1006.76 1007.14 1007.42 1007.68 1007.97 1008.32 1008.75 1009.24 1009.77 1010.32 1010.85 1011.34 1011.79 1012.20 1012.60 1013.01 1013.45 1013.93 1014.45 1015.01 1015.59 1016.17 1016.73 1017.25 1017.74 1018.17 1018.54 1018.86 1019.13 1019.36 1019.56 1019.73 1019.90 1020.08 1020.29 1020.55 1020.85 1021.21
1002.47 1003.52 1004.51 1005.39 1006.11 1006.68 1007.12 1007.47 1007.79 1008.12 1008.51 1008.95 1009.44 1009.96 1010.50 1011.01 1011.50 1011.94 1012.35 1012.75 1013.15 1013.56 1014.01 1014.49 1015.00 1015.53 1016.06 1016.58 1017.07 1017.52 1017.92 1018.27 1018.57 1018.83 1019.05 1019.24 1019.41 1019.59 1019.78 1020.00 1020.27 1020.60 1020.97
1002.19 1003.21 1004.18 1005.06 1005.82 1006.44 1006.94 1007.37 1007.77 1008.16 1008.59 1009.05 1009.55 1010.07 1010.59 1011.10 1011.58 1012.02 1012.44 1012.84 1013.24 1013.66 1014.09 1014.55 1015.03 1015.52 1016.00 1016.47 1016.92 1017.32 1017.69 1018.02 1018.30 1018.55 1018.77 1018.96 1019.15 1019.34 1019.54 1019.78 1020.06 1020.39 1020.77
1001.81 1002.77 1003.71 1004.59 1005.36 1006.04 1006.62 1007.14 1007.62 1008.09 1008.57 1009.07 1009.59 1010.11 1010.63 1011.13 1011.60 1012.06 1012.49 1012.91 1013.33 1013.76 1014.20 1014.65 1015.11 1015.56 1016.01 1016.43 1016.83 1017.19 1017.51 1017.81 1018.07 1018.31 1018.53 1018.74 1018.94 1019.15 1019.37 1019.62 1019.90 1020.23 1020.58
1001.35 1002.24 1003.13 1003.99 1004.79 1005.52 1006.19 1006.81 1007.39 1007.95 1008.50 1009.04 1009.59 1010.12 1010.64 1011.14 1011.62 1012.08 1012.53 1012.97 1013.42 1013.87 1014.32 1014.77 1015.22 1015.65 1016.05 1016.43 1016.78 1017.09 1017.38 1017.64 1017.89 1018.12 1018.34 1018.56 1018.78 1019.00 1019.24 1019.49 1019.77 1020.07 1020.39
1000.88 1001.67 1002.50 1003.34 1004.16 1004.94 1005.69 1006.41 1007.09 1007.75 1008.38 1008.98 1009.56 1010.12 1010.65 1011.15 1011.64 1012.11 1012.57 1013.03 1013.49 1013.96 1014.42 1014.87 1015.31 1015.71 1016.09 1016.42 1016.73 1017.00 1017.25 1017.49 1017.71 1017.94 1018.16 1018.39 1018.63 1018.87 1019.11 1019.36 1019.62 1019.88 1020.16
1000.46 1001.15 1001.91 1002.71 1003.53 1004.36 1005.19 1005.99 1006.77 1007.52 1008.23 1008.90 1009.53 1010.12 1010.66 1011.17 1011.66 1012.13 1012.59 1013.05 1013.52 1013.98 1014.44 1014.89 1015.30 1015.69 1016.04 1016.35 1016.62 1016.86 1017.09 1017.31 1017.52 1017.75 1017.98 1018.22 1018.46 1018.71 1018.95 1019.18 1019.41 1019.64 1019.86
1000.14 1000.73 1001.41 1002.17 1002.98 1003.83 1004.70 1005.58 1006.44 1007.27 1008.06 1008.79 1009.47 1010.09 1010.65 1011.17 1011.66 1012.11 1012.56 1013.01 1013.46 1013.90 1014.34 1014.76 1015.16 1015.53 1015.86 1016.15 1016.41 1016.64 1016.86 1017.08 1017.30 1017.52 1017.76 1018.00 1018.25 1018.49 1018.72 1018.94 1019.13 1019.30 1019.46
999.96 1000.46 1001.06 1001.76 1002.54 1003.38 1004.27 1005.17 1006.08 1006.97 1007.82 1008.61 1009.34 1010.00 1010.58 1011.11 1011.59 1012.03 1012.46 1012.87 1013.28 1013.68 1014.09 1014.48 1014.85 1015.20 1015.52 1015.82 1016.08 1016.33 1016.56 1016.79 1017.01 1017.25 1017.49 1017.74 1017.98 1018.20 1018.41 1018.59 1018.74 1018.86 1018.95
999.95 1000.37 1000.89 1001.51 1002.22 1003.01 1003.87 1004.77 1005.68 1006.60 1007.48 1008.32 1009.09 1009.79 1010.40 1010.94 1011.42 1011.85 1012.24 1012.61 1012.97 1013.33 1013.69 1014.04 1014.39 1014.73 1015.05 1015.36 1015.65 1015.92 1016.18 1016.44 1016.68 1016.93 1017.17 1017.41 1017.63 1017.83 1018.00 1018.14 1018.25 1018.31 1018.35
1000.12 1000.46 1000.89 1001.41 1002.02 1002.72 1003.49 1004.34 1005.22 1006.13 1007.02 1007.88 1008.69 1009.42 1010.07 1010.64 1011.12 1011.54 1011.91 1012.24 1012.55 1012.86 1013.17 1013.49 1013.81 1014.15 1014.48 1014.82 1015.14 1015.46 1015.76 1016.04 1016.31 1016.56 1016.79 1017.01 1017.19 1017.36 1017.49 1017.58 1017.64 1017.66 1017.65
1000.46 1000.72 1001.04 1001.43 1001.91 1002.47 1003.12 1003.86 1004.67 1005.53 1006.41 1007.28 1008.12 1008.89 1009.58 1010.18 1010.69 1011.11 1011.46 1011.77 1012.04 1012.31 1012.57 1012.87 1013.18 1013.51 1013.87 1014.23 1014.60 1014.96 1015.30 1015.61 1015.89 1016.14 1016.35 1016.53 1016.67 1016.78 1016.86 1016.90 1016.92 1016.91 1016.87
1000.91 1001.08 1001.28 1001.53 1001.84 1002.24 1002.73 1003.33 1004.04 1004.82 1005.66 1006.53 1007.39 1008.20 1008.93 1009.58 1010.12 1010.57 1010.93 1011.22 1011.47 1011.71 1011.95 1012.22 1012.53 1012.87 1013.24 1013.64 1014.04 1014.44 1014.80 1015.13 1015.41 1015.64 1015.82 1015.95 1016.04 1016.09 1016.12 1016.12 1016.10 1016.06 1016.01
1001.42 1001.49 1001.56 1001.65 1001.78 1001.99 1002.31 1002.76 1003.33 1004.03 1004.81 1005.66 1006.53 1007.37 1008.16 1008.86 1009.45 1009.93 1010.31 1010.62 1010.87 1011.09 1011.32 1011.58 1011.88 1012.23 1012.62 1013.04 1013.47 1013.88 1014.26 1014.59 1014.86 1015.06 1015.19 1015.27 1015.30 1015.29 1015.27 1015.23 1015.19 1015.15 1015.10
Thickness
5791 5790 5788 5787 5784 5781 5778 5776 5773 5771 5770 5767 5764 5761 5759 5760 5760 5759 5759 5757 5756 5755 5753 5752 5750 5749 5747 5746 5745 5743 5740 5737 5737 5733 5730 5730 5731 5731 5731 5732 5731 5730 5730
5790 5790 5789 5787 5785 5782 5780 5777 5775 5773 5771 5769 5767 5764 5762 5760 5759 5759 5758 5757 5756 5755 5754 5752 5750 5748 5746 5745 5743 5742 5738 5736 5735 5731 5726 5723 5724 5727 5729 5729 5728 5728 5727
5792 5791 5789 5788 5786 5784 5782 5780 5777 5775 5773 5771 5768 5765 5762 5760 5758 5757 5757 5757 5756 5754 5753 5751 5750 5748 5746 5744 5743 5741 5738 5734 5733 5732 5728 5721 5718 5720 5723 5724 5725 5725 5724
5797 5794 5793 5790 5789 5787 5786 5782 5779 5777 5774 5772 5769 5765 5760 5757 5756 5756 5756 5756 5755 5754 5753 5751 5749 5747 5745 5744 5742 5741 5739 5736 5732 5731 5730 5728 5725 5720 5717 5720 5721 5721 5721
5802 5798 5797 5795 5793 5791 5787 5784 5780 5777 5775 5773 5770 5766 5762 5759 5758 5757 5756 5755 5754 5754 5752 5750 5749 5747 5745 5743 5742 5741 5739 5737 5734 5731 5729 5727 5725 5723 5718 5714 5715 5716 5717
5805 5802 5800 5797 5793 5791 5788 5784 5780 5777 5776 5773 5770 5767 5763 5760 5757 5755 5754 5753 5753 5752 5751 5750 5748 5746 5744 5743 5742 5740 5738 5736 5734 5732 5730 5728 5725 5721 5718 5714 5712 5711 5713
5807 5803 5799 5795 5793 5791 5788 5785 5781 5777 5776 5773 5770 5768 5765 5762 5758 5756 5754 5752 5751 5750 5750 5749 5748 5746 5744 5742 5741 5739 5737 5736 5734 5732 5730 5729 5727 5724 5720 5715 5711 5709 5709
5810 5807 5803 5799 5795 5792 5789 5785 5781 5778 5776 5773 5771 5769 5766 5763 5760 5758 5756 5753 5751 5751 5750 5749 5747 5745 5744 5742 5740 5738 5736 5735 5733 5732 5730 5728 5726 5724 5721 5716 5711 5706 5704
5812 5809 5806 5802 5798 5794 5790 5787 5783 5780 5777 5774 5772 5769 5766 5764 5761 5759 5757 5754 5753 5751 5750 5748 5746 5745 5743 5741 5739 5737 5735 5733 5732 5730 5729 5726 5724 5722 5720 5717 5713 5707 5701
5812 5809 5806 5803 5799 5796 5793 5789 5785 5782 5779 5775 5772 5770 5767 5764 5762 5759 5756 5754 5752 5751 5749 5747 5745 5743 5742 5740 5738 5736 5734 5732 5730 5729 5726 5724 5722 5720 5718 5715 5712 5709 5704
5812 5809 5806 5803 5800 5796 5792 5789 5785 5781 5778 5775 5772 5770 5767 5764 5762 5759 5757 5755 5752 5750 5748 5746 5744 5742 5740 5738 5736 5734 5732 5730 5728 5726 5724 5722 5720 5718 5715 5712 5709 5706 5703
5810 5809 5805 5800 5797 5793 5791 5788 5785 5781 5779 5776 5773 5770 5767 5764 5760 5758 5756 5754 5751 5749 5747 5744 5742 5740 5738 5736 5734 5732 5730 5727 5725 5723 5721 5719 5718 5715 5712 5709 5706 5704 5701
5805 5804 5801 5797 5795 5792 5790 5788 5785 5782 5779 5776 5772 5769 5765 5762 5759 5757 5755 5752 5750 5747 5745 5742 5739 5737 5736 5734 5732 5729 5727 5725 5723 5721 5719 5717 5714 5711 5709 5706 5703 5701 5698
5800 5798 5796 5795 5793 5791 5789 5787 5784 5782 5779 5775 5771 5768 5765 5761 5759 5756 5753 5750 5748 5745 5742 5739 5737 5735 5733 5731 5729 5727 5724 5722 5720 5718 5716 5714 5712 5709 5706 5703 5700 5697 5693
5794 5794 5793 5792 5790 5788 5787 5785 5782 5780 5777 5773 5769 5766 5764 5760 5757 5753 5750 5748 5745 5743 5739 5736 5734 5732 5730 5729 5726 5724 5721 5719 5717 5715 5713 5711 5709 5707 5704 5701 5697 5694 5689
5791 5791 5790 5789 5787 5786 5785 5783 5780 5777 5774 5770 5767 5764 5761 5757 5753 5750 5748 5744 5742 5739 5736 5733 5731 5729 5728 5726 5723 5721 5718 5715 5713 5711 5709 5708 5706 5704 5701 5699 5696 5692 5688
5789 5788 5788 5787 5786 5784 5783 5780 5778 5774 5770 5766 5763 5760 5757 5754 5751 5748 5744 5741 5738 5736 5733 5730 5728 5725 5724 5722 5720 5717 5714 5712 5709 5707 5705 5704 5702 5699 5697 5695 5692 5689 5686
5785 5786 5786 5785 5784 5783 5780 5778 5775 5771 5767 5763 5760 5756 5753 5750 5747 5744 5741 5738 5735 5732 5729 5727 5724 5722 5720 5719 5716 5713 5710 5707 5705 5703 5701 5698 5697 5695 5692 5689 5686 5684 5681
5782 5783 5784 5783 5780 5778 5776 5773 5770 5767 5764 5761 5757 5754 5751 5747 5743 5739 5737 5735 5731 5728 5725 5723 5720 5717 5716 5714 5712 5708 5705 5701 5699 5698 5696 5693 5692 5690 5687 5684 5681 5678 5676
5778 5776 5776 5775 5772 5771 5771 5768 5765 5762 5760 5758 5756 5752 5749 5745 5740 5737 5734 5731 5728 5724 5722 5718 5716 5714 5712 5710 5707 5703 5700 5696 5694 5692 5690 5688 5686 5684 5681 5679 5676 5673 5671
5770 5769 5768 5766 5766 5766 5765 5761 5758 5757 5757 5755 5752 5748 5745 5741 5738 5733 5730 5727 5723 5720 5716 5714 5711 5709 5708 5705 5702 5699 5695 5691 5689 5686 5684 5682 5680 5678 5676 5674 5673 5671 5667
5762 5761 5759 5758 5758 5759 5757 5754 5751 5752 5751 5748 5744 5742 5739 5737 5733 5728 5725 5722 5718 5715 5711 5708 5706 5704 5703 5700 5697 5694 5691 5687 5683 5681 5679 5678 5675 5673 5671 5669 5667 5665 5662
5753 5753 5752 5751 5751 5751 5751 5747 5746 5745 5742 5739 5736 5734 5732 5729 5726 5722 5719 5714 5711 5708 5706 5704 5701 5699 5697 5695 5692 5689 5686 5683 5680 5678 5675 5673 5670 5667 5665 5664 5661 5659 5656
5745 5746 5744 5743 5742 5743 5742 5741 5740 5738 5734 5730 5728 5726 5723 5720 5718 5715 5712 5709 5705 5702 5700 5698 5696 5694 5691 5689 5687 5684 5681 5678 5675 5672 5670 5667 5664 5661 5658 5656 5653 5651 5650
5737 5738 5737 5737 5736 5735 5734 5734 5733 5731 5726 5723 5720 5718 5716 5713 5710 5707 5705 5702 5700 5699 5696 5694 5692 5689 5687 5685 5682 5679 5676 5673 5669 5666 5663 5660 5658 5655 5652 5649 5647 5645 5642
5728 5728 5728 5728 5727 5727 5726 5726 5726 5724 5720 5716 5713 5710 5708 5705 5702 5699 5696 5694 5693 5692 5690 5689 5686 5684 5682 5679 5676 5673 5670 5666 5662 5659 5656 5654 5651 5649 5646 5643 5640 5637 5635